SCP
0 0 0 0 0 1 1 1 1 2 2 2 2 2 2 2 2 2 1 1 0 0 0 0 0 0 0 0 0 0 0 1 1 1 1 1 1 0 0 0 0 0 0
0 0 0 0 0 0 1 1 2 2 2 2 2 2 2 2 2 2 1 1 0 0 0 0 0 0 0 0 0 0 0 1 1 1 1 1 1 0 0 0 0 0 0
0 0 0 0 0 0 0 1 2 2 3 3 3 3 3 2 2 2 1 1 1 0 0 0 0 0 0 0 0 0 1 1 1 0 0 0 0 0 0 0 0 0 0
0 0 0 0 0 0 0 1 1 2 3 4 5 5 4 3 3 2 2 2 1 1 0 0 0 0 0 0 0 0 1 1 1 0 0 0 0 0 0 0 0 0 0
0 0 0 0 0 0 0 0 1 2 3 4 4 5 5 4 4 3 3 2 1 1 0 0 0 0 0 0 0 0 0 1 1 0 0 0 0 0 0 0 0 0 0
0 0 0 0 0 0 0 0 0 1 2 3 4 5 5 5 4 4 3 2 1 0 0 0 0 0 0 0 0 0 0 0 1 0 0 0 0 0 0 0 0 0 0
0 0 0 0 0 0 0 0 0 1 1 2 3 4 5 6 5 4 3 2 1 0 0 0 0 0 0 0 0 0 0 0 0 0 0 0 0 0 0 0 0 0 0
0 0 0 0 0 0 0 0 0 1 1 1 2 4 6 7 6 4 3 1 1 0 0 0 0 0 0 0 0 0 0 0 0 0 0 0 0 0 0 0 0 0 0
0 0 0 0 0 0 0 0 0 0 1 1 2 4 6 7 6 4 2 1 0 0 0 0 0 0 0 0 0 0 0 0 0 0 0 0 0 0 0 0 0 0 0
0 0 0 0 0 0 0 0 0 0 1 1 2 4 5 6 5 3 1 0 0 0 0 0 0 0 0 0 0 0 0 0 0 0 0 0 0 0 0 0 0 0 0
0 0 0 0 0 0 0 0 0 0 0 1 2 3 4 4 3 1 0 0 0 0 0 0 0 0 0 0 0 0 0 0 0 0 0 0 0 0 0 0 1 1 0
0 0 0 0 0 0 0 0 0 0 0 0 1 2 2 1 1 0 0 0 0 0 0 0 0 0 0 0 0 0 0 0 0 0 0 0 0 0 0 0 1 1 0
0 0 0 0 0 0 0 0 0 0 0 0 0 0 0 0 0 0 0 0 0 0 0 0 0 0 0 0 0 0 0 0 0 0 0 0 0 0 0 0 0 0 0
0 0 0 0 0 0 0 0 0 0 0 0 0 0 0 0 0 0 0 0 0 0 0 0 0 0 0 0 0 0 0 0 0 0 0 0 0 0 0 0 0 0 0
0 0 0 0 0 0 0 0 0 0 0 0 0 0 0 0 0 0 0 0 0 0 0 0 0 0 0 0 0 0 0 0 0 0 0 0 0 0 0 0 0 0 0
0 0 0 0 0 0 0 0 0 0 0 0 0 0 0 0 0 0 0 0 0 0 0 0 0 0 0 0 0 0 0 0 0 0 0 0 0 0 0 0 0 0 0
0 0 0 0 0 0 0 0 0 0 0 0 0 0 0 0 0 0 0 0 0 0 0 0 0 0 0 0 0 0 0 0 0 0 0 0 0 0 0 0 0 0 0
0 0 0 0 0 0 0 0 0 0 0 0 0 0 0 0 0 0 0 0 0 0 0 0 0 0 0 0 0 0 0 0 0 0 0 0 0 0 0 0 0 0 0
0 0 0 0 0 0 0 0 0 0 0 0 0 0 0 0 0 0 0 0 0 0 0 0 0 0 0 0 0 0 0 0 0 0 0 0 0 0 0 0 0 0 0
0 0 0 0 0 0 0 0 0 0 0 0 0 0 0 0 0 0 0 0 0 0 0 0 0 0 0 0 0 0 0 0 0 0 0 0 0 0 0 0 0 0 0
0 0 0 0 0 0 0 0 0 0 0 0 0 0 0 0 0 0 0 0 0 0 0 0 0 0 0 0 0 0 0 0 0 0 0 0 0 0 0 0 0 0 0
0 0 0 0 0 0 0 0 0 0 0 0 0 0 0 0 0 0 0 0 0 0 0 0 0 0 0 0 0 0 0 0 0 0 0 0 0 0 0 0 0 0 0
0 0 0 0 0 0 0 0 0 0 0 0 0 0 0 0 0 0 0 0 0 0 0 0 0 0 0 0 0 0 0 0 0 0 0 0 0 0 0 0 0 0 0
0 0 0 0 0 0 0 0 0 0 0 0 0 0 0 0 0 0 0 0 0 0 0 0 0 0 0 0 0 0 0 0 0 0 0 0 0 0 0 0 0 0 0
-0 0 0 0 0 0 0 0 0 0 0 0 0 0 0 0 0 0 0 0 0 0 0 0 0 0 0 0 0 0 0 0 0 0 0 0 0 0 0 0 0 0 0
-0 0 0 0 0 0 0 -0 0 0 0 0 0 0 0 0 0 0 0 0 0 0 0 0 0 0 0 0 0 0 0 0 0 0 0 0 0 0 0 0 0 0 0
Wind_Speed
2 1 1 1 2 2 2 2 2 2 1 0 0 1 1 1 1 1 1 1 1 1 1 1 1 2 2 2 2 1 1 1 0 0 1 2 2 1 1 1 1 1 1
2 1 1 1 1 1 1 1 2 2 2 1 1 1 1 1 1 1 1 1 1 1 1 1 1 2 2 2 2 1 1 0 1 1 0 2 3 2 2 1 1 1 1
4 3 1 1 0 1 1 1 1 1 2 2 1 1 1 1 1 1 1 1 1 1 1 2 2 2 2 3 3 3 3 2 1 1 1 1 2 2 2 2 1 2 1
4 3 2 1 1 1 1 1 1 1 1 1 1 0 0 1 1 1 1 2 1 1 1 2 2 3 2 3 3 3 2 3 2 1 1 1 1 1 2 2 1 2 2
4 4 3 3 2 1 1 1 2 2 2 2 1 1 1 1 1 1 1 2 1 1 2 2 2 2 2 3 3 3 3 3 3 2 1 1 1 1 2 3 3 2 2
3 2 2 1 0 1 1 1 1 2 2 2 1 1 1 1 0 1 1 2 1 1 2 2 2 2 2 3 3 4 4 3 3 2 2 2 2 2 2 3 3 4 3
2 2 1 1 0 1 1 1 1 2 2 2 2 1 1 1 2 2 2 2 2 2 2 2 2 2 2 2 3 3 3 4 4 4 3 3 3 2 2 2 3 4 3
1 2 2 1 1 1 0 1 1 2 2 2 2 2 1 1 1 2 2 2 2 3 3 2 2 2 2 2 2 2 3 3 3 4 3 3 3 2 2 3 2 3 3
2 1 1 1 1 1 1 1 1 1 2 3 2 2 2 1 2 2 1 2 2 2 3 2 3 3 2 2 2 2 2 2 3 3 4 3 3 2 3 3 3 3 4
1 1 1 1 1 1 1 1 1 1 1 2 2 2 2 2 2 1 2 2 2 2 2 2 2 3 2 2 2 2 2 3 3 3 4 4 3 3 3 3 3 3 5
1 1 1 1 1 2 2 2 2 2 2 2 2 2 2 2 2 2 2 2 2 2 2 2 2 2 2 2 3 3 3 3 3 3 4 5 4 3 3 3 3 4 4
1 0 1 1 1 2 2 2 2 2 2 2 2 2 2 2 2 2 3 2 2 2 2 2 2 2 2 2 3 3 3 3 4 4 4 5 4 4 4 4 5 4 5
0 1 1 1 1 2 2 2 3 3 3 2 2 2 3 3 3 3 3 3 3 3 3 2 2 2 2 2 3 3 4 4 4 4 5 5 4 5 4 4 4 4 4
0 0 1 1 2 2 2 2 3 3 3 3 2 3 3 3 3 3 3 3 3 3 3 3 3 3 3 3 3 3 3 3 4 4 4 4 4 5 4 4 5 4 4
1 1 2 2 2 2 2 2 3 3 3 3 3 3 3 3 3 3 3 3 3 3 3 3 3 2 2 3 3 3 3 3 3 3 3 3 4 5 4 3 3 4 4
3 3 3 2 2 2 2 2 3 3 3 3 3 3 3 3 3 3 3 3 3 3 3 3 3 3 3 5 6 4 3 3 3 4 4 4 4 5 7 7 6 5 4
4 3 3 3 3 2 2 2 3 3 3 3 3 3 3 4 4 4 3 3 3 3 3 3 3 4 4 6 6 5 3 3 3 3 3 4 4 5 4 6 7 7 8
4 3 3 3 2 2 2 2 2 2 2 3 3 3 3 4 4 3 4 4 3 3 3 4 4 4 5 6 6 6 4 3 4 4 4 4 4 4 4 4 4 4 5
4 3 3 2 2 2 2 1 2 2 2 3 3 3 3 4 4 4 4 3 3 3 3 3 4 4 5 7 6 6 3 3 4 4 4 4 5 7 8 5 4 4 4
2 2 1 1 1 2 1 1 2 2 3 4 4 4 3 4 4 4 4 3 3 4 4 4 4 4 5 7 7 6 3 3 4 3 4 6 7 8 8 5 4 5 5
2 1 1 1 2 2 1 2 2 3 4 4 4 4 4 4 4 4 3 3 3 3 3 4 4 4 5 7 7 7 3 3 4 3 3 4 8 8 8 7 5 6 5
2 1 1 2 2 1 1 2 3 3 3 3 3 4 4 3 3 3 3 3 3 3 3 3 4 3 4 5 6 7 6 5 4 4 4 4 7 8 7 6 6 7 6
2 2 1 2 2 1 1 3 4 3 3 3 3 3 4 3 3 2 3 3 2 2 3 3 3 4 3 4 7 7 7 7 4 4 6 6 7 7 5 6 6 5 3
2 1 1 2 2 2 2 3 3 2 2 3 3 3 3 3 3 3 2 2 2 2 3 3 3 4 4 3 3 3 4 5 4 4 5 6 6 4 5 5 4 3 2
2 1 2 2 3 3 3 3 2 1 2 2 3 3 3 3 3 3 3 3 3 3 4 3 3 4 4 5 6 4 3 3 3 3 2 2 2 2 2 2 2 2 2
2 2 2 3 3 2 3 3 2 1 1 2 3 2 2 3 2 3 3 4 5 6 7 7 6 5 7 9 8 7 7 6 5 3 2 2 2 3 3 3 2 2 2
Wind_Direction
277 325 17 32 48 32 33 27 18 4 34 23 213 206 240 257 260 255 274 256 237 214 185 189 188 189 193 199 191 179 168 184 130 73 325 315 280 268 264 260 242 232 219
279 287 316 31 53 17 9 13 7 352 352 344 297 234 230 229 239 276 295 273 248 225 204 185 198 205 194 185 188 175 168 191 149 139 84 322 322 305 275 259 243 253 245
226 242 247 268 7 341 322 326 331 345 348 351 22 23 34 30 349 313 304 314 297 252 223 211 206 211 196 196 202 198 187 201 228 178 158 185 250 300 299 271 259 252 240
228 233 238 246 248 277 316 328 325 345 353 8 29 50 202 261 272 290 295 312 305 294 268 234 213 213 210 207 208 205 207 185 206 233 233 218 189 223 300 301 276 266 259
220 223 231 232 236 264 326 337 340 351 0 15 355 267 255 243 289 323 317 321 305 288 282 265 233 226 222 217 214 210 213 204 201 199 196 213 237 217 228 277 293 284 253
227 235 241 221 309 2 13 9 7 351 354 2 352 305 245 241 322 320 306 307 304 288 272 270 252 244 241 227 219 214 212 216 215 209 198 201 200 206 210 248 273 278 273
217 226 238 253 323 7 7 1 10 346 344 346 334 307 269 234 236 258 267 295 300 286 274 263 251 248 250 250 228 213 214 214 213 215 220 221 225 208 210 240 266 275 284
229 231 230 233 251 279 331 356 357 344 344 342 332 322 307 290 274 274 275 275 281 281 278 259 252 250 247 251 240 229 225 219 213 220 220 223 231 221 215 218 235 276 281
247 246 266 269 251 261 279 289 334 350 342 337 334 323 314 299 291 297 295 290 287 294 293 272 251 244 238 236 228 230 237 231 223 222 218 222 228 227 228 228 220 229 264
306 320 349 352 335 313 312 336 348 323 320 330 326 325 316 308 301 307 306 301 298 297 294 293 268 246 236 230 227 230 236 236 237 230 225 227 225 225 225 230 237 235 244
297 319 345 356 355 359 0 3 359 352 345 336 328 327 325 329 327 313 303 301 301 302 293 284 280 261 242 228 224 235 235 237 245 242 235 238 231 227 228 230 231 234 237
278 322 7 2 0 356 357 1 355 350 337 331 337 334 330 338 336 324 319 313 301 298 295 291 284 277 266 244 232 238 243 239 244 248 246 249 244 236 233 229 232 234 231
19 43 27 353 342 345 349 351 350 345 342 345 348 345 339 337 329 321 321 321 310 308 306 295 283 280 275 265 253 245 247 244 244 245 244 248 243 247 244 236 236 238 242
263 292 315 315 324 332 338 340 341 343 345 351 349 339 331 325 317 317 323 322 318 312 307 300 289 282 277 270 260 253 255 253 251 249 249 248 241 246 244 241 239 239 243
272 273 289 303 315 325 334 335 335 340 342 344 341 329 326 325 324 323 319 319 319 311 309 308 305 305 294 277 271 256 254 252 255 255 254 251 257 259 258 257 249 241 242
262 273 284 291 296 301 312 325 326 328 336 333 322 323 328 327 323 318 318 320 318 311 312 307 304 300 290 293 291 283 266 261 261 267 267 264 263 271 277 278 273 256 245
254 254 261 264 273 279 289 293 302 317 326 322 318 321 323 319 317 316 321 316 312 314 309 303 299 291 287 292 291 287 274 264 268 270 276 282 282 284 272 275 279 276 272
251 254 257 265 270 270 286 292 302 309 312 313 312 314 314 312 311 312 309 308 309 309 305 302 299 296 292 294 293 292 282 268 264 263 261 267 276 275 274 266 268 268 270
245 245 248 253 261 268 274 293 304 303 306 304 302 303 305 304 305 304 303 305 307 308 303 301 307 302 298 298 295 293 280 273 273 268 267 268 266 273 278 270 266 273 277
261 254 258 259 260 270 255 248 277 288 289 292 294 297 298 295 295 296 299 302 299 300 305 306 306 302 302 306 303 293 269 273 277 278 275 278 277 276 277 263 258 266 273
275 247 231 247 251 257 241 257 270 275 283 294 299 301 298 293 292 298 299 298 302 308 310 308 307 306 306 310 311 302 280 271 276 278 281 280 287 285 278 273 258 260 273
301 278 258 278 276 247 226 261 271 281 292 295 297 298 299 298 306 306 305 303 301 306 307 306 309 308 307 312 310 311 307 299 281 281 281 284 290 288 287 281 274 278 280
288 290 264 286 295 279 240 256 278 291 299 305 303 303 307 306 303 294 296 301 298 294 301 305 308 309 310 308 310 311 310 308 298 290 299 300 298 293 286 286 288 286 272
278 274 269 279 291 290 283 268 282 288 298 302 303 304 308 309 304 297 291 290 286 287 292 296 296 298 302 301 300 298 300 306 305 301 305 314 317 308 300 298 295 278 264
281 262 252 267 279 289 295 299 294 288 291 297 299 304 307 304 303 302 288 285 270 269 279 279 279 289 293 298 306 305 299 296 291 304 304 310 315 311 304 301 296 284 280
271 277 276 279 285 291 294 298 290 278 283 298 303 301 301 300 300 302 307 299 288 293 292 285 285 285 292 302 305 306 308 308 305 303 300 300 303 300 298 295 297 295 287